Tracking 17145 objects as of 30-May-2015
HD Live streaming from Space Station

COSMOS 2416

Track COSMOS 2416 now!
10-day predictions
COSMOS 2416 is classified as:


NORAD ID: 28908
Int'l Code: 2005-048A
Perigee: 1,443.7 km
Apogee: 1,454.1 km
Inclination: 82.5 °
Period: 114.7 minutes
Semi major axis: 7819 km
RCS: 1.597 m2 (large)
Launch date: December 21, 2005
Source: Commonwealth of Independent States (former USSR) (CIS)
Your satellite tracking list
Your tracking list is empty





NASA's NSSDC Master Catalog

Two Line Element Set (TLE):
1 28908U 05048A   15149.28174874  .00000043  00000-0  19792-3 0  9993
2 28908 082.4693 008.7645 0006689 171.4620 239.1132 12.55457467432322

Source of the keplerian elements: AFSPC

N2YO: 245